GW0697 Weather Reports


time (UTC)temp
C
wind
direction
speed
KPH
gust
KPH
rain 1hr
cm
rain 24hr
cm
rain mn
cm
humidity
%
barometer
mb
20260504045327 2 213 0.0 0.0 0.00 0.00 0.00 86 1014.0
20260504043827 3 213 0.0 1.6 0.00 0.00 0.00 86 1014.0
20260504042327 3 243 0.0 1.6 0.00 0.00 0.00 85 1014.0
20260504040827 3 221 0.0 1.6 0.00 0.00 0.00 84 1014.0
20260504035327 3 221 0.0 0.0 0.00 0.00 0.00 83 1013.9
20260504033827 3 221 0.0 0.0 0.00 0.00 0.00 83 1014.0
20260504032327 4 221 0.0 1.6 0.00 0.00 0.00 82 1013.9
20260504030827 4 221 0.0 0.0 0.00 0.00 0.00 81 1013.7
20260504025327 5 221 0.0 0.0 0.00 0.00 0.00 80 1013.7
20260504023827 5 221 0.0 0.0 0.00 0.00 0.00 78 1013.8
20260504022327 5 221 0.0 1.6 0.00 0.00 0.00 75 1013.8
20260504020827 6 221 0.0 1.6 0.00 0.00 0.00 75 1013.7
20260504015327 6 221 0.0 1.6 0.00 0.00 0.00 72 1013.7
20260504013827 7 221 0.0 0.0 0.00 0.00 0.00 71 1013.5
20260504012327 7 221 0.0 1.6 0.00 0.00 0.00 69 1013.3
20260504010827 8 221 0.0 1.6 0.00 0.00 0.00 66 1013.2
20260504005327 8 221 0.0 1.6 0.00 0.00 0.00 63 1013.2
20260504003827 10 221 0.0 3.2 0.00 0.00 0.00 56 1013.0
20260504002327 11 226 0.0 3.2 0.00 0.00 0.00 50 1012.9
20260504000827 12 267 0.0 8.0 0.00 0.00 0.00 42 1012.8
20260503235327 13 167 0.0 3.2 0.00 0.00 0.00 44 1012.8
20260503233827 13 85 3.2 4.8 0.00 0.00 0.00 37 1012.7
20260503232328 14 193 1.6 9.7 0.00 0.00 0.00 36 1012.7
20260503230828 14 237 4.8 11.3 0.00 0.00 0.00 37 1012.5
20260503225328 14 97 0.0 9.7 0.00 0.00 0.00 36 1012.5
20260503223828 15 214 4.8 12.9 0.00 0.00 0.00 35 1012.6
20260503222328 15 43 1.6 14.5 0.00 0.00 0.00 36 1012.5
20260503220828 15 104 3.2 16.1 0.00 0.00 0.00 34 1012.7
20260503215328 15 148 1.6 22.5 0.00 0.00 0.00 33 1012.8
20260503213828 15 32 4.8 11.3 0.00 0.00 0.00 33 1012.7
20260503212328 15 34 6.4 17.7 0.00 0.00 0.00 33 1012.8
20260503210828 15 43 8.0 22.5 0.00 0.00 0.00 33 1012.8
20260503205328 15 171 1.6 22.5 0.00 0.00 0.00 33 1012.8
20260503203828 15 8 6.4 17.7 0.00 0.00 0.00 34 1012.8
20260503202328 15 113 4.8 27.4 0.00 0.00 0.00 34 1012.8
20260503200828 15 35 14.5 27.4 0.00 0.00 0.00 33 1013.0
20260503195328 15 27 17.7 22.5 0.00 0.00 0.00 33 1013.0
20260503193828 15 352 12.9 25.7 0.00 0.00 0.00 34 1013.3
20260503192328 15 25 4.8 17.7 0.00 0.00 0.00 33 1013.6
20260503190828 15 28 11.3 20.9 0.00 0.00 0.00 35 1013.7
20260503185328 14 5 17.7 27.4 0.00 0.00 0.00 35 1013.8
20260503183828 14 134 8.0 19.3 0.00 0.00 0.00 36 1014.0
20260503182328 13 46 9.7 24.1 0.00 0.00 0.00 36 1014.2
20260503180828 14 163 3.2 19.3 0.00 0.00 0.00 36 1014.3
20260503175328 13 293 1.6 22.5 0.00 0.00 0.00 38 1014.3
20260503173828 13 125 6.4 24.1 0.00 0.00 0.00 37 1014.6
20260503172328 13 51 3.2 29.0 0.00 0.00 0.00 37 1014.6
20260503170828 13 50 11.3 25.7 0.00 0.00 0.00 36 1014.8
20260503150828 11 136 8.0 17.7 0.00 0.00 0.00 43 1016.0
20260503130829 7 42 9.7 20.9 0.00 0.00 0.00 56 1016.5
20260503080829 3 257 1.6 3.2 0.00 0.00 0.00 69 1014.8
20260503072329 3 168 3.2 3.2 0.00 0.00 0.00 66 1014.4
20260503070829 4 243 1.6 4.8 0.00 0.00 0.00 65 1014.3
20260503053830 5 268 1.6 4.8 0.00 0.00 0.00 64 1014.3